www.pogodaiklimat.ru

Погода и климат >> Архив погоды >> Беларусь >> Ивацевичи


ПОГОДА в Ивацевичах

  • Прогноз погоды в Ивацевичах
  • Монитор погоды в Ивацевичах
  • Климат города

АРХИВ ПОГОДЫ в Ивацевичах

Время (UTC), дата Ветер
(напр.,м/с)
 
Видим.   Явления Облачность Т
(С)
Тd
(С)
f
(%)
Тe
(С)
Тes
(С)
Комфортность P
(гПа)
Po
(гПа)
Тmin
(С)
Tmax
(С)
R
(мм)
R24
(мм)
S
(см)
06 13.02 штиль 0 3900 м слабый снег 10/10 420 м
[Frnb Ns]
-2.2 -2.8 96 -4 -4 1017.9 998.2 -2.4 0.0 9
09 13.02 штиль 0 5000 м дымка {снег} 10/0 2000 м
[Ac As]
+0.6 -1.5 86 -1 +1 1018.6 999.1
12 13.02 штиль 0 12 км слабый снег 10/0 2000 м
[Ac As]
+1.6 -1.9 78 +1 +2 1018.5 999.0
15 13.02 штиль 0 3700 м слабый снег 10/0 2000 м
[Ac As]
-0.2 -1.1 94 -2 -2 1018.4 998.8
18 13.02 В 1 2600 м слабый снег 10/0 2000 м
[Ac As]
-1.2 -1.7 96 -4 -4 1018.9 999.2 +2.0 0.5 8
06 14.02 В 2 10 км 10/10 600 м
[Sc]
-5.4 -7.0 88 -10 -10 1021.0 1001.0 -5.4 0.4 8
09 14.02 В 3 15 км 10/10 630 м
[Sc]
-3.8 -6.2 83 -9 -9 1022.0 1002.1
12 14.02 В 3 20 км 10/10 630 м
[Sc]
-2.6 -6.1 77 -8 -8 1022.3 1002.5
15 14.02 В 3 20 км 10/10 630 м
[Sc]
-4.6 -7.0 83 -10 -10 1024.0 1004.0
18 14.02 В 3 20 км 10/10 600 м
[Sc]
-5.4 -7.6 84 -11 -11 1025.1 1005.0 -2.3 8
06 15.02 В 1 10 км 10/10 600 м
[Sc]
-7.6 -9.3 88 -10 -10 1027.7 1007.4 -8.1 7
09 15.02 В 1 15 км {снег} 10/10 800 м
[Sc]
-5.8 -8.7 80 -8 -8 1028.6 1008.4
12 15.02 Ю 2 15 км {снег} 10/10 840 м
[Sc]
-4.4 -8.3 74 -8 -8 1028.4 1008.3
15 15.02 штиль 0 20 км 9/8 900 м
[Sc Ac trans]
-4.3 -8.3 74 -5 -5 1028.0 1007.9
18 15.02 ЮВ 1 20 км 9/0
[Ac trans]
-4.6 -7.8 78 -7 -7 1028.2 1008.1 -3.7 0.0 6
06 16.02 Ю 1 6000 м дымка 10/0 2000 м
[Ac As]
-3.8 -5.1 91 -6 -6 1024.6 1004.6 -4.9 0.0 6
09 16.02 ЮВ 2 8000 м дымка 10/0 2000 м
[Ac As]
-2.5 -4.4 87 -7 -5 1024.0 1004.1
12 16.02 Ю 2 20 км 9/0 2000 м
[Ac trans]
-0.1 -3.9 76 -4 -2 1022.7 1003.0
15 16.02 Ю 2 20 км 10/0 2000 м
[Ac As]
+0.4 -3.0 78 -3 -3 1021.8 1002.2
18 16.02 Ю 2 6000 м слабый снег 10/0 2000 м
[As op]
-0.3 -2.2 87 -4 -4 1022.2 1002.5 +0.6 0.0 5
06 17.02 ЮЗ 3 10 км 8/4 600 м
[Sc Ac trans]
-1.7 -3.1 90 -7 -7 1022.2 1002.4 -1.7 0.0 5
09 17.02 ЮЗ 4 4000 м слабый ливневой снег 10/10 600 м
[Cb calv]
-0.6 -2.2 89 -6 -6 1021.1 1001.4
12 17.02 ЮЗ 3 12 км {ливн. осадки} 10/10 660 м
[Cb calv]
+0.8 -1.3 86 -4 -4 1020.8 1001.2
15 17.02 ЮЗ 3 12 км слабый снег 10/10 800 м
[Sc]
+0.8 -0.9 88 -4 -4 1020.3 1000.8
18 17.02 ЮЗ 2 6000 м в посл. час снег 9/6 700 м
[Sc Ac trans]
+0.5 -0.6 92 -3 -3 1020.5 1000.9 +1.2 0.2 5
06 18.02 С 2 10 км 10/10 840 м
[Sc]
-2.3 -5.0 82 -6 -6 1022.4 1002.6 -2.4 0.0 5
09 18.02 СЗ 2 10 км слабый снег 10/0 2000 м
[Ac As]
-2.4 -5.8 77 -6 -5 1023.1 1003.3
12 18.02 С 2 12 км слабый снег 10/0 2000 м
[Ac As]
-2.2 -5.6 77 -6 -5 1023.8 1004.0
15 18.02 С 2 10 км слабый снег {ливн. осадки} 10/0 2000 м
[Ac As]
-2.7 -5.2 83 -7 -7 1024.9 1005.0
18 18.02 СЗ 1 12 км {ливн. осадки, снег} 9/4 600 м
[Sc Ac trans]
-3.1 -5.9 81 -5 -5 1026.0 1006.1 -1.7 0.0
06 19.02 З 1 10 км 10 баллов -8.2 -9.5 90 -11 -11 1026.0 1005.5 -8.2 5
09 19.02 З 3 10 км 10 баллов -3.8 -6.7 80 -9 -9 1026.0 1005.9
12 19.02 СЗ 2 10 км 10 баллов -0.5 -3.2 82 -4 -4 1025.0 1005.1
15 19.02 З 3 10 км 10 баллов +0.6 -3.7 73 -4 -4 1025.0 1005.2
18 19.02 З 2 10 км 10 баллов -0.4 -3.1 82 -4 -4 1025.0 1005.2 +0.6 4

 

Местоположение метеостанции Ивацевичи (Брестская область, Беларусь): широта 52.70 долгота 25.36 высота над уровнем моря 156 м.

В архиве по умолчанию представлена погода в Ивацевичах за последнюю неделю. Архивные данные за месяц целиком и за предыдущие месяцы, начиная с января 2011 года, Вы можете получить, выбрав интересующий диапазон дат из раскрывающегося списка и нажав кнопку "Ввод!".

Внимание! Время в таблицах - всемирное. Для получения местного времени необходимо прибавить поправку, которая в Ивацевичах равна 3 ч.

Смотрите также архив погоды в соседних городах и на ближайших метеорологических станциях:

Погода в Пружанах (Брестская область, Беларусь) (61 км)
Погода в Барановичах (Брестская область, Беларусь) (63 км)
Погода в Ганцевичах (Брестская область, Беларусь) (73 км)
Погода в Пинске (Брестская область, Беларусь) (80 км)
Погода в Волковыске (Гродненская область, Беларусь) (80 км)
Погода в Полесской (Брестская область, Беларусь) (101 км)
Погода в Новогрудке (Гродненская область, Беларусь) (105 км)
Погода в Любешове (Волынская область, Украина) (115 км)
Погода в Столбцах (Минская область, Беларусь) (126 км)
Погода в Бресте (Брестская область, Беларусь) (130 км)

Пояснения к столбцам:

Ветер - указаны скорость ветра в м/с - средняя за 10 мин, порывы в срок и между сроками (в фигурных скобках) и направление, откуда дует ветер: С - северный, СВ - северо-восточный, В - восточный, ЮВ - юго-восточный, Ю - южный, ЮЗ - юго-западный, З - западный, СЗ - северо-западный.
Видимость - горизонтальная дальность видимости в метрах или километрах. При видимости от 1 до 10 км при отсутствии осадков обычно наблюдается дымка, при ухудшении видимости до 1 км и менее - туман. В сухую погоду видимость может ухудшаться дымом, пылью или мглою.
Явления - указаны атмосферные явления, наблюдавшиеся в срок или в последний час перед сроком; фигурными скобками обозначены явления, наблюдавшиеся между сроками (за 1-3 часа до срока); квадратными скобками обозначены град или гололедные отложения с указанием их диаметра в мм.
Облачность - указаны через наклонную черту общая и нижняя облачность в баллах и высота нижней границы облаков в метрах; квадратными скобками обозначены формы облаков: Ci - перистые, Cs - перисто-слоистые, Cc - перисто-кучевые, Ac - высококучевые, As - высокослоистые, Sc - слоисто-кучевые, Ns - слоисто-дождевые, Cu - кучевые, Cb - кучево-дождевые. Подробнее классификацию облаков см. в Атласе облаков (PDF).
T - Температура воздуха - температура, измеренная на высоте 2 м над землей.
Td - Температура точки росы - температура, при понижении до которой содержащийся в воздухе водяной пар достигнет насыщения.
f - Относительная влажность воздуха - влажноcть воздуха, измеренная на высоте 2 м над землей.
Te - Эффективная температура - температура, которую ощущает одетый по сезону человек в тени. Характеристика душности погоды. При расчете учитывается влияние влажности воздуха и скорости ветра на теплоощущения человека.
Tes - Эффективная температура на солнце - температура, которую ощущает человек, с поправкой на солнечный нагрев. Характеристика знойности погоды. Зависит от высоты солнца над горизонтом, облачности и скорости ветра. Ночью, в пасмурную погоду, а также при ветре 12 м/с и более поправка равна нулю.
P - Атмосферное давление - приведенное к уровню моря атмосферное давление.
Po - Атмосферное давление - измеренное на уровне метеостанции атмосферное давление.
Tmin - Минимальная температура - минимум температуры воздуха на высоте 2 м над землей.
Tmax - Максимальная температура - максимум температуры воздуха на высоте 2 м над землей.
R - Количество осадков - Количество выпавших осадков за период времени, мм. При наведении курсора мыши на число - период времени, за который выпало указанное количество осадков.
R24 - Количество осадков - Количество выпавших осадков за 24 часа, мм.
S - Снежный покров - Высота снежного покрова, см. При наведении курсора мыши на число - состояние снежного покрова и степень покрытия местности в баллах.